Date String (YYYY-MM-DD hh:mm:ss) UTC,Instrument flags,Ambient pressure (hPa),Sample flow (lpm),Bypass flow (lpm),Sample temperature (°C),Ambient temperature (°C),ASC tube jacket temperature (°C),LED temperature (°C),Box temperature (°C),Sample RH (%),Span deviation,Mass concentration (μg/m³),Mass concentration (μg/m³),Mass concentration (μg/m³)
DateTimeUTC,F1_M11,P_M11,Q1_M11,Q2_M11,T1_M11,T2_M11,T3_M11,T4_M11,T5_M11,U1_M11,ZSPAN_M11,X0_M11,X2_M11,X1_M11
2023-05-13 11:00:00,,0835.7,5.00,0.00,24.1,22.4,00.0,32.5,25.6,27.1,0000.0,0005.02,0002.47,0002.07
2023-05-13 11:01:00,,0835.6,5.00,0.00,24.0,22.4,00.0,32.5,25.6,27.1,0000.0,0004.99,0002.47,0002.09
2023-05-13 11:02:00,,0835.6,5.00,0.00,24.0,22.4,00.0,32.5,25.5,27.1,0000.0,0004.50,0002.51,0002.12
2023-05-13 11:03:00,,0835.6,5.01,0.00,24.0,22.3,00.0,32.5,25.5,27.0,0000.0,0004.28,0002.55,0002.14
2023-05-13 11:04:00,,0835.6,5.00,0.00,24.0,22.3,00.0,32.4,25.5,27.0,0000.0,0004.32,0002.57,0002.14
2023-05-13 11:05:00,,0835.6,5.00,0.00,24.0,22.3,00.0,32.4,25.5,27.0,0000.0,0004.26,0002.55,0002.13
2023-05-13 11:06:00,,0835.6,4.99,0.00,24.0,22.3,00.0,32.4,25.5,27.0,0000.0,0004.23,0002.53,0002.12
2023-05-13 11:07:00,,0835.6,4.99,0.00,24.0,22.3,00.0,32.4,25.5,27.0,0000.0,0004.21,0002.52,0002.10
2023-05-13 11:08:00,,0835.6,5.00,0.00,23.9,22.3,00.0,32.4,25.5,27.0,0000.0,0003.53,0002.49,0002.08
2023-05-13 11:09:00,,0835.5,5.00,0.00,23.9,22.3,00.0,32.4,25.5,27.0,0000.0,0003.64,0002.52,0002.07
2023-05-13 11:10:00,,0835.5,5.01,0.00,23.9,22.3,00.0,32.4,25.5,27.0,0000.0,0003.55,0002.48,0002.04
2023-05-13 11:11:00,,0835.6,5.00,0.00,23.9,22.3,00.0,32.4,25.5,27.0,0000.0,0003.38,0002.43,0002.00
2023-05-13 11:12:00,,0835.5,5.00,0.00,23.9,22.3,00.0,32.3,25.5,27.0,0000.0,0003.30,0002.40,0001.97
2023-05-13 11:13:00,,0835.5,4.98,0.00,23.9,22.3,00.0,32.3,25.5,27.1,0000.0,0003.19,0002.34,0001.95
2023-05-13 11:14:00,,0835.5,4.99,0.00,23.9,22.3,00.0,32.3,25.5,27.1,0000.0,0003.20,0002.34,0001.95
2023-05-13 11:15:00,,0835.5,5.01,0.00,23.9,22.2,00.0,32.3,25.5,27.1,0000.0,0003.17,0002.33,0001.96
2023-05-13 11:16:00,,0835.5,5.01,0.00,23.9,22.2,00.0,32.3,25.5,27.1,0000.0,0003.27,0002.36,0001.97
2023-05-13 11:17:00,,0835.5,5.01,0.00,23.9,22.2,00.0,32.3,25.4,27.2,0000.0,0003.42,0002.45,0002.02
2023-05-13 11:18:00,,0835.6,5.00,0.00,23.9,22.2,00.0,32.3,25.4,27.3,0000.0,0003.53,0002.55,0002.08
2023-05-13 11:19:00,,0835.6,4.99,0.00,23.8,22.2,00.0,32.3,25.4,27.5,0000.0,0003.69,0002.68,0002.18
2023-05-13 11:20:00,,0835.5,5.00,0.00,23.8,22.2,00.0,32.3,25.4,27.6,0000.0,0003.69,0002.75,0002.30
2023-05-13 11:21:00,,0835.5,4.99,0.00,23.8,22.1,00.0,32.3,25.4,27.6,0000.0,0003.93,0002.89,0002.39
2023-05-13 11:22:00,,0835.5,5.00,0.00,23.8,22.1,00.0,32.2,25.3,27.6,0000.0,0004.05,0002.97,0002.48
2023-05-13 11:23:00,,0835.6,5.01,0.00,23.8,22.1,00.0,32.2,25.3,27.5,0000.0,0004.07,0002.98,0002.53
2023-05-13 11:24:00,,0835.6,5.01,0.00,23.7,22.1,00.0,32.2,25.3,27.4,0000.0,0004.15,0003.03,0002.57
2023-05-13 11:25:00,,0835.6,5.01,0.00,23.7,22.0,00.0,32.2,25.3,27.4,0000.0,0004.25,0003.09,0002.60
2023-05-13 11:26:00,,0835.6,5.01,0.00,23.7,22.0,00.0,32.2,25.3,27.6,0000.0,0004.84,0003.16,0002.67
2023-05-13 11:27:00,,0835.8,4.99,0.00,23.7,21.9,00.0,32.2,25.2,27.6,0000.0,0005.08,0003.19,0002.72
2023-05-13 11:28:00,,0835.8,4.99,0.00,23.7,21.9,00.0,32.2,25.2,27.7,0000.0,0005.13,0003.21,0002.75
2023-05-13 11:29:00,,0835.7,5.00,0.00,23.7,21.9,00.0,32.2,25.2,27.6,0000.0,0005.02,0003.18,0002.75
2023-05-13 11:30:00,,0835.7,5.00,0.00,23.7,21.9,00.0,32.1,25.2,27.6,0000.0,0004.89,0003.14,0002.70
2023-05-13 11:31:00,,0835.7,4.99,0.00,23.6,21.9,00.0,32.1,25.2,27.7,0000.0,0004.95,0003.13,0002.66
2023-05-13 11:32:00,,0835.7,5.00,0.00,23.7,21.9,00.0,32.1,25.2,27.7,0000.0,0004.87,0003.11,0002.64
2023-05-13 11:33:00,,0835.7,5.00,0.00,23.7,21.9,00.0,32.1,25.3,27.8,0000.0,0004.82,0003.12,0002.63
2023-05-13 11:34:00,,0835.7,5.00,0.00,23.7,22.0,00.0,32.1,25.3,27.8,0000.0,0004.87,0003.13,0002.65
2023-05-13 11:35:00,,0835.7,5.01,0.00,23.7,22.0,00.0,32.1,25.3,27.8,0000.0,0005.08,0003.13,0002.66
2023-05-13 11:36:00,,0835.8,5.00,0.00,23.7,22.1,00.0,32.1,25.3,27.7,0000.0,0005.13,0003.11,0002.65
2023-05-13 11:37:00,,0835.8,5.00,0.00,23.7,22.1,00.0,32.1,25.4,27.6,0000.0,0004.82,0003.05,0002.58
2023-05-13 11:38:00,,0835.8,5.00,0.00,23.7,22.1,00.0,32.1,25.4,27.5,0000.0,0004.53,0002.99,0002.54
2023-05-13 11:39:00,,0835.8,5.00,0.00,23.7,22.2,00.0,32.1,25.4,27.6,0000.0,0004.44,0002.92,0002.50
2023-05-13 11:40:00,,0835.8,5.00,0.00,23.7,22.3,00.0,32.1,25.4,27.5,0000.0,0004.62,0002.93,0002.45
2023-05-13 11:41:00,,0835.8,5.00,0.00,23.8,22.3,00.0,32.1,25.5,27.3,0000.0,0004.78,0002.93,0002.42
2023-05-13 11:42:00,,0835.8,5.00,0.00,23.8,22.4,00.0,32.1,25.5,27.4,0000.0,0004.78,0002.95,0002.41
2023-05-13 11:43:00,,0835.8,4.99,0.00,23.8,22.3,00.0,32.1,25.4,27.6,0000.0,0004.86,0002.95,0002.44
2023-05-13 11:44:00,,0835.8,5.00,0.00,23.7,22.2,00.0,32.1,25.3,27.6,0000.0,0005.03,0002.94,0002.45
2023-05-13 11:45:00,,0835.8,5.00,0.00,23.7,22.1,00.0,32.1,25.3,27.6,0000.0,0005.09,0002.97,0002.46
2023-05-13 11:46:00,,0835.7,5.00,0.00,23.7,22.1,00.0,32.1,25.3,27.7,0000.0,0004.97,0002.98,0002.47
2023-05-13 11:47:00,,0835.7,5.01,0.00,23.7,22.0,00.0,32.1,25.3,27.6,0000.0,0004.95,0003.03,0002.51
2023-05-13 11:48:00,,0835.7,5.00,0.00,23.7,21.9,00.0,32.1,25.2,27.6,0000.0,0005.05,0003.05,0002.55
2023-05-13 11:49:00,,0835.7,5.00,0.00,23.6,21.9,00.0,32.1,25.2,27.6,0000.0,0004.97,0003.06,0002.59
2023-05-13 11:50:00,,0835.6,5.00,0.00,23.6,21.9,00.0,32.1,25.2,27.5,0000.0,0004.97,0003.08,0002.60
2023-05-13 11:51:00,,0835.6,5.00,0.00,23.6,21.8,00.0,32.1,25.2,27.3,0000.0,0004.83,0003.03,0002.60
2023-05-13 11:52:00,,0835.7,5.00,0.00,23.6,21.8,00.0,32.0,25.1,27.3,0000.0,0004.69,0002.99,0002.60
2023-05-13 11:53:00,,0835.6,5.00,0.00,23.6,21.8,00.0,32.0,25.1,27.4,0000.0,0004.64,0003.00,0002.62
2023-05-13 11:54:00,,0835.6,5.00,0.00,23.5,21.7,00.0,32.0,25.1,27.3,0000.0,0004.50,0002.90,0002.56
2023-05-13 11:55:00,,0835.6,5.01,0.00,23.5,21.8,00.0,32.0,25.1,27.4,0000.0,0004.14,0002.84,0002.51
2023-05-13 11:56:00,,0835.6,5.00,0.00,23.5,21.8,00.0,32.0,25.1,27.4,0000.0,0004.04,0002.78,0002.45
2023-05-13 11:57:00,,0835.7,4.99,0.00,23.5,21.8,00.0,32.0,25.1,27.3,0000.0,0003.90,0002.68,0002.37
2023-05-13 11:58:00,,0835.7,5.00,0.00,23.5,21.8,00.0,32.0,25.2,27.2,0000.0,0003.59,0002.55,0002.28
2023-05-13 11:59:00,,0835.8,5.00,0.00,23.6,21.9,00.0,32.0,25.2,27.2,0000.0,0003.31,0002.49,0002.22
